Ellensburg, WA

10:06 AM PDT on July 20, 2017 (GMT -0700)
Bowers

Weather History for KELN - May, 2014

Change the Weather History Date:

Sunday, May 11, 2014

  Actual Average (KYKM) Record (KYKM)
Temperature  
Mean Temperature 58 °F -  
Max Temperature 71 °F 72 °F 98 °F (1949)
Min Temperature 46 °F 41 °F 27 °F (1970)
Degree Days  
Heating Degree Days 7    
Growing Degree Days 8 (Base 50)    
Moisture  
Dew Point 34 °F    
Average Humidity 47    
Maximum Humidity 68    
Minimum Humidity 24    
Precipitation  
Precipitation 0.00 in - - ()
Sea Level Pressure  
Sea Level Pressure 30.24 in    
Wind  
Wind Speed 12 mph (NW)    
Max Wind Speed 18 mph    
Max Gust Speed 25 mph    
Visibility 10 miles    
Events      
Averages and records for this station are not official NWS values.
T = Trace of Precipitation, MM = Missing Value Source: NWS Daily Summary

Daily Weather History Graph

Daily Weather History Graph

Search for Another Location

Airport or City:

Trip Planner

Search our weather history database for the weather conditions in past years. The results will help you decide how hot, cold, wet, or windy it might be!

Date:

Astronomy

May. 11, 2014 Rise Set
Actual Time 5:31 AM PDT 8:26 PM PDT
Civil Twilight 4:56 AM PDT 9:01 PM PDT
Nautical Twilight 4:10 AM PDT 9:47 PM PDT
Astronomical Twilight 3:16 AM PDT 10:42 PM PDT
Moon 5:15 PM PDT (5/11) 3:53 AM PDT (5/11)
Length of Visible Light 16h 05m
Length of Day
14h 54m
Waxing Gibbous, 90% of the Moon is Illuminated
May 11
Waxing Gibbous
May 14
Full
May 21
Last Quarter
May 28
New
Jun 5
First Quarter

Hourly Weather History & Observations

Time (PDT) Temp. Windchill Dew Point Humidity Pressure Visibility Wind Dir Wind Speed Gust Speed Precip Events Conditions
12:53 AM 46.9 °F - 36.0 °F 66% 30.17 in 10.0 mi NW 16.1 mph 25.3 mph N/A   Clear
1:53 AM 46.9 °F - 36.0 °F 66% 30.18 in 10.0 mi NW 17.3 mph - N/A   Clear
2:53 AM 46.0 °F 39.3 °F 36.0 °F 68% 30.19 in 10.0 mi NW 16.1 mph - N/A   Clear
3:53 AM 46.0 °F 39.9 °F 35.1 °F 66% 30.20 in 10.0 mi NW 13.8 mph - N/A   Clear
4:53 AM 46.0 °F 39.3 °F 35.1 °F 66% 30.22 in 10.0 mi NW 16.1 mph 24.2 mph N/A   Clear
5:53 AM 46.9 °F - 35.1 °F 63% 30.23 in 10.0 mi NW 18.4 mph 24.2 mph N/A   Clear
6:53 AM 48.0 °F - 36.0 °F 63% 30.25 in 10.0 mi NW 11.5 mph - N/A   Clear
7:53 AM 52.0 °F - 36.0 °F 54% 30.26 in 10.0 mi NW 13.8 mph - N/A   Clear
8:53 AM 55.9 °F - 37.0 °F 49% 30.27 in 10.0 mi WNW 13.8 mph - N/A   Clear
9:53 AM 60.1 °F - 35.1 °F 39% 30.27 in 10.0 mi SW 8.1 mph - N/A   Clear
11:53 AM 64.9 °F - 36.0 °F 34% 30.26 in 10.0 mi Calm Calm - N/A   Clear
12:53 PM 66.9 °F - 34.0 °F 30% 30.25 in 10.0 mi SSE 6.9 mph - N/A   Partly Cloudy
1:53 PM 69.1 °F - 33.1 °F 26% 30.24 in 10.0 mi Variable 5.8 mph - N/A   Clear
2:53 PM 69.1 °F - 33.1 °F 26% 30.24 in 10.0 mi Variable 6.9 mph - N/A   Mostly Cloudy
3:53 PM 70.0 °F - 32.0 °F 25% 30.23 in 10.0 mi Calm Calm - N/A   Clear
4:53 PM 69.1 °F - 30.9 °F 24% 30.23 in 10.0 mi SE 6.9 mph - N/A   Partly Cloudy
5:53 PM 69.1 °F - 30.9 °F 24% 30.23 in 10.0 mi Variable 3.5 mph - N/A   Mostly Cloudy
6:53 PM 66.9 °F - 30.9 °F 26% 30.24 in 10.0 mi SE 8.1 mph - N/A   Clear
7:53 PM 61.0 °F - 36.0 °F 39% 30.25 in 10.0 mi SE 5.8 mph - N/A   Clear
8:53 PM 53.1 °F - 35.1 °F 50% 30.27 in 10.0 mi East 8.1 mph - N/A   Clear
9:53 PM 48.0 °F - 35.1 °F 61% 30.30 in 10.0 mi WNW 3.5 mph - N/A   Clear
10:53 PM 46.9 °F - 35.1 °F 63% 30.31 in 10.0 mi NE 6.9 mph - N/A   Clear
11:53 PM 46.0 °F 43.1 °F 33.1 °F 61% 30.33 in 10.0 mi West 5.8 mph - N/A   Clear